Custer, SD

4:36 PM MDT on September 21, 2017 (GMT -0600)
Custer County

Weather History for KCUT - December, 2014

Change the Weather History Date:

Monday, December 8, 2014

  Actual Average Record
Temperature  
Mean Temperature 38 °F 24 °F  
Max Temperature 51 °F 34 °F 59 °F (1990)
Min Temperature 25 °F 14 °F -26 °F (1972)
Degree Days  
Heating Degree Days 27 41  
Month to date heating degree days 272 325  
Since 1 July heating degree days 2360 2506  
Cooling Degree Days 0 0  
Month to date cooling degree days 0 0  
Year to date cooling degree days 152 177  
Moisture  
Dew Point 19 °F    
Average Humidity 47    
Maximum Humidity 75    
Minimum Humidity 19    
Precipitation  
Precipitation 0.00 in 0.01 in 0.20 in (2011)
Month to date precipitation 0.00 0.09  
Year to date precipitation 20.05 18.66  
Sea Level Pressure  
Sea Level Pressure 30.28 in    
Wind  
Wind Speed 5 mph (WSW)    
Max Wind Speed 14 mph    
Max Gust Speed 20 mph    
Visibility 10 miles    
Events      
T = Trace of Precipitation, MM = Missing Value Source: NWS Daily Summary

Daily Weather History Graph

Daily Weather History Graph

Search for Another Location

Airport or City:

Trip Planner

Search our weather history database for the weather conditions in past years. The results will help you decide how hot, cold, wet, or windy it might be!

Date:

Astronomy

Dec. 08, 2014 Rise Set
Actual Time 7:15 AM MST 4:17 PM MST
Civil Twilight 6:42 AM MST 4:49 PM MST
Nautical Twilight 6:06 AM MST 5:25 PM MST
Astronomical Twilight 5:31 AM MST 6:00 PM MST
Moon 6:45 PM MST (12/8) 8:45 AM MST (12/8)
Length of Visible Light 10h 06m
Length of Day
9h 01m
Waning Gibbous, 95% of the Moon is Illuminated
Dec 8
Waning Gibbous
Dec 14
Last Quarter
Dec 21
New
Dec 28
First Quarter
Jan 4
Full

Hourly Weather History & Observations

Time (MST) Temp. Windchill Dew Point Humidity Pressure Visibility Wind Dir Wind Speed Gust Speed Precip Events Conditions
12:53 AM 25.0 °F 18.1 °F 17.1 °F 72% 30.27 in 10.0 mi SSW 5.8 mph - N/A   Clear
1:53 AM 28.9 °F 20.4 °F 19.9 °F 69% 30.25 in 10.0 mi WSW 9.2 mph - N/A   Clear
2:53 AM 30.0 °F 20.5 °F 19.9 °F 66% 30.25 in 10.0 mi WSW 11.5 mph - N/A   Clear
3:53 AM 28.9 °F 20.4 °F 19.9 °F 69% 30.26 in 10.0 mi West 9.2 mph - N/A   Clear
4:53 AM 30.0 °F 20.5 °F 21.9 °F 72% 30.26 in 10.0 mi West 11.5 mph - N/A   Clear
5:53 AM 30.9 °F 21.2 °F 21.9 °F 69% 30.26 in 10.0 mi West 12.7 mph 19.6 mph N/A   Clear
6:53 AM 28.9 °F 20.4 °F 21.0 °F 72% 30.28 in 10.0 mi West 9.2 mph - N/A   Clear
7:53 AM 32.0 °F 27.5 °F 21.0 °F 64% 30.27 in 10.0 mi West 4.6 mph - N/A   Clear
8:53 AM 37.9 °F - 19.9 °F 48% 30.27 in 10.0 mi Calm Calm - N/A   Clear
9:53 AM 44.1 °F 42.5 °F 16.0 °F 32% 30.26 in 10.0 mi Variable 3.5 mph - N/A   Clear
10:53 AM 46.9 °F - 12.0 °F 24% 30.25 in 10.0 mi Variable 5.8 mph - N/A   Clear
11:53 AM 48.9 °F - 9.0 °F 20% 30.21 in 10.0 mi NNE 6.9 mph - N/A   Clear
12:53 PM 46.9 °F - 19.0 °F 33% 30.26 in 10.0 mi East 8.1 mph - N/A   Clear
1:53 PM 45.0 °F 41.2 °F 18.0 °F 34% 30.25 in 10.0 mi East 6.9 mph - N/A   Clear
2:53 PM 41.0 °F 36.4 °F 19.9 °F 43% 30.29 in 10.0 mi Variable 6.9 mph - N/A   Clear
3:53 PM 37.9 °F 34.4 °F 21.0 °F 51% 30.32 in 10.0 mi SSE 4.6 mph - N/A   Clear
4:53 PM 33.1 °F - 19.9 °F 59% 30.35 in 10.0 mi Calm Calm - N/A   Clear
5:53 PM 32.0 °F - 19.0 °F 59% 30.36 in 10.0 mi Calm Calm - N/A   Clear
6:53 PM 30.0 °F 26.5 °F 19.0 °F 64% 30.36 in 10.0 mi NW 3.5 mph - N/A   Clear
7:53 PM 28.0 °F - 19.0 °F 69% 30.36 in 10.0 mi Calm Calm - N/A   Clear
8:53 PM 27.0 °F - 19.0 °F 72% 30.32 in 10.0 mi Calm Calm - N/A   Clear
9:53 PM 28.9 °F - 21.0 °F 72% 30.27 in 10.0 mi Calm Calm - N/A   Clear
10:53 PM 30.0 °F 26.5 °F 21.0 °F 69% 30.25 in 10.0 mi WSW 3.5 mph - N/A   Clear
11:53 PM 30.0 °F 26.5 °F 21.0 °F 69% 30.24 in 10.0 mi West 3.5 mph - N/A   Clear